Location: Newark
(42.8481°N, 0.4872°E)
Time: 08:15:59
(UTC+00:00)

Transit 2A Rocket - Pass Details

Date: 04 November 2020
Orbit: 588 x 914 km, 66.7° (Epoch: 29 November)

Event Time Altitude Azimuth Distance (km) Brightness Sun altitude
Rises 14:30:30 0° 338° (NNW) 3,324 8.1 19.9°
Reaches altitude 10° 14:34:47 10° 9° (N) 2,301 7.1 19.3°
Maximum altitude 14:36:44 12° 31° (NNE) 2,127 6.8 19.1°
Drops below altitude 10° 14:38:37 10° 53° (NE) 2,215 6.9 18.8°
Sets 14:42:30 0° 85° (E) 3,045 7.7 18.3°
